Year,Month,Day,Hour,Minute,Value (Times are PST for windgust in km/hr)
2012,03,11,00,00,3.20
2012,03,11,00,01,3.20
2012,03,11,00,02,4.80
2012,03,11,00,03,4.80
2012,03,11,00,04,3.20
2012,03,11,00,05,3.20
2012,03,11,00,06,4.80
2012,03,11,00,07,3.20
2012,03,11,00,08,1.60
2012,03,11,00,10,4.80
2012,03,11,00,11,1.60
2012,03,11,00,12,1.60
2012,03,11,00,16,1.60
2012,03,11,00,17,3.20
2012,03,11,00,18,4.80
2012,03,11,00,19,4.80
2012,03,11,00,20,6.40
2012,03,11,00,21,4.80
2012,03,11,00,22,3.20
2012,03,11,00,23,8.10
2012,03,11,00,24,6.40
2012,03,11,00,25,6.40
2012,03,11,00,26,6.40
2012,03,11,00,27,6.40
2012,03,11,00,28,4.80
2012,03,11,00,29,4.80
2012,03,11,00,30,4.80
2012,03,11,00,31,6.40
2012,03,11,00,32,6.40
2012,03,11,00,33,4.80
2012,03,11,00,34,8.10
2012,03,11,00,35,4.80
2012,03,11,00,36,8.10
2012,03,11,00,37,6.40
2012,03,11,00,38,3.20
2012,03,11,00,39,6.40
2012,03,11,00,40,8.10
2012,03,11,00,41,3.20
2012,03,11,00,42,6.40
2012,03,11,00,44,1.60
2012,03,11,00,45,6.40
2012,03,11,00,46,6.40
2012,03,11,00,47,6.40
2012,03,11,00,48,4.80
2012,03,11,00,49,4.80
2012,03,11,00,51,6.40
2012,03,11,00,52,3.20
2012,03,11,00,53,3.20
2012,03,11,00,54,3.20
2012,03,11,00,55,3.20
2012,03,11,00,56,4.80
2012,03,11,00,57,4.80
2012,03,11,00,59,4.80
2012,03,11,01,00,3.20
2012,03,11,01,02,1.60
2012,03,11,01,08,4.80
2012,03,11,01,09,4.80
2012,03,11,01,10,1.60
2012,03,11,01,12,1.60
2012,03,11,01,16,1.60
2012,03,11,01,17,3.20
2012,03,11,01,18,1.60
2012,03,11,01,19,3.20
2012,03,11,01,20,1.60
2012,03,11,01,27,1.60
2012,03,11,01,35,3.20
2012,03,11,01,37,3.20
2012,03,11,01,38,1.60
2012,03,11,01,41,3.20
2012,03,11,01,42,3.20
2012,03,11,01,49,1.60
2012,03,11,03,01,1.60
2012,03,11,03,18,1.60
2012,03,11,03,19,1.60
2012,03,11,03,20,1.60
2012,03,11,03,23,1.60
2012,03,11,03,31,1.60
2012,03,11,03,39,1.60
2012,03,11,03,40,3.20
2012,03,11,03,41,1.60
2012,03,11,03,42,3.20
2012,03,11,03,43,3.20
2012,03,11,03,45,1.60
2012,03,11,03,56,1.60
2012,03,11,03,57,1.60
2012,03,11,03,58,1.60
2012,03,11,04,02,3.20
2012,03,11,04,03,3.20
2012,03,11,04,05,3.20
2012,03,11,04,06,1.60
2012,03,11,04,08,3.20
2012,03,11,04,09,1.60
2012,03,11,04,10,1.60
2012,03,11,04,11,6.40
2012,03,11,04,12,6.40
2012,03,11,04,13,3.20
2012,03,11,04,14,1.60
2012,03,11,04,15,4.80
2012,03,11,04,16,1.60
2012,03,11,04,18,3.20
2012,03,11,04,19,4.80
2012,03,11,04,20,3.20
2012,03,11,04,21,3.20
2012,03,11,04,22,3.20
2012,03,11,04,24,1.60
2012,03,11,04,28,1.60
2012,03,11,04,29,4.80
2012,03,11,04,30,1.60
2012,03,11,04,31,3.20
2012,03,11,04,32,1.60
2012,03,11,04,39,4.80
2012,03,11,04,40,4.80
2012,03,11,04,41,3.20
2012,03,11,04,42,6.40
2012,03,11,04,43,8.10
2012,03,11,04,44,6.40
2012,03,11,04,45,4.80
2012,03,11,04,46,4.80
2012,03,11,04,47,6.40
2012,03,11,04,48,6.40
2012,03,11,04,49,11.30
2012,03,11,04,50,9.60
2012,03,11,04,51,4.80
2012,03,11,04,52,9.60
2012,03,11,04,53,4.80
2012,03,11,04,54,4.80
2012,03,11,04,55,6.40
2012,03,11,04,56,6.40
2012,03,11,04,57,9.60
2012,03,11,04,58,9.60
2012,03,11,04,59,11.30
2012,03,11,05,00,4.80
2012,03,11,05,01,1.60
2012,03,11,05,02,1.60
2012,03,11,05,03,6.40
2012,03,11,05,04,4.80
2012,03,11,05,05,4.80
2012,03,11,05,06,4.80
2012,03,11,05,07,8.10
2012,03,11,05,08,17.70
2012,03,11,05,09,4.80
2012,03,11,05,10,9.60
2012,03,11,05,11,19.30
2012,03,11,05,12,6.40
2012,03,11,05,13,3.20
2012,03,11,05,14,4.80
2012,03,11,05,15,14.50
2012,03,11,05,16,8.10
2012,03,11,05,17,3.20
2012,03,11,05,18,12.90
2012,03,11,05,19,8.10
2012,03,11,05,20,3.20
2012,03,11,05,21,1.60
2012,03,11,05,22,1.60
2012,03,11,05,23,3.20
2012,03,11,05,24,1.60
2012,03,11,05,25,4.80
2012,03,11,05,26,6.40
2012,03,11,05,27,4.80
2012,03,11,05,28,4.80
2012,03,11,05,29,8.10
2012,03,11,05,30,3.20
2012,03,11,05,31,4.80
2012,03,11,05,32,4.80
2012,03,11,05,33,4.80
2012,03,11,05,34,3.20
2012,03,11,05,35,4.80
2012,03,11,05,36,4.80
2012,03,11,05,37,1.60
2012,03,11,05,38,3.20
2012,03,11,05,39,1.60
2012,03,11,05,40,3.20
2012,03,11,05,42,1.60
2012,03,11,05,43,4.80
2012,03,11,05,44,8.10
2012,03,11,05,45,4.80
2012,03,11,05,46,4.80
2012,03,11,05,47,3.20
2012,03,11,05,48,3.20
2012,03,11,05,49,3.20
2012,03,11,05,50,3.20
2012,03,11,05,51,4.80
2012,03,11,05,52,3.20
2012,03,11,05,53,3.20
2012,03,11,05,54,3.20
2012,03,11,05,55,4.80
2012,03,11,05,56,3.20
2012,03,11,05,57,6.40
2012,03,11,05,58,4.80
2012,03,11,05,59,4.80
2012,03,11,06,00,1.60
2012,03,11,06,01,3.20
2012,03,11,06,02,3.20
2012,03,11,06,05,1.60
2012,03,11,06,06,3.20
2012,03,11,06,07,1.60
2012,03,11,06,08,3.20
2012,03,11,06,09,4.80
2012,03,11,06,10,3.20
2012,03,11,06,11,6.40
2012,03,11,06,12,14.50
2012,03,11,06,13,6.40
2012,03,11,06,14,1.60
2012,03,11,06,15,6.40
2012,03,11,06,16,11.30
2012,03,11,06,17,16.10
2012,03,11,06,18,3.20
2012,03,11,06,19,3.20
2012,03,11,06,20,3.20
2012,03,11,06,21,1.60
2012,03,11,06,22,4.80
2012,03,11,06,23,9.60
2012,03,11,06,24,6.40
2012,03,11,06,25,1.60
2012,03,11,06,26,6.40
2012,03,11,06,27,6.40
2012,03,11,06,28,6.40
2012,03,11,06,29,1.60
2012,03,11,06,30,3.20
2012,03,11,06,31,6.40
2012,03,11,06,32,3.20
2012,03,11,06,33,4.80
2012,03,11,06,34,6.40
2012,03,11,06,35,3.20
2012,03,11,06,36,3.20
2012,03,11,06,37,4.80
2012,03,11,06,38,3.20
2012,03,11,06,39,6.40
2012,03,11,06,40,3.20
2012,03,11,06,41,1.60
2012,03,11,06,42,1.60
2012,03,11,06,43,1.60
2012,03,11,06,44,8.10
2012,03,11,06,45,4.80
2012,03,11,06,46,4.80
2012,03,11,06,47,4.80
2012,03,11,06,48,3.20
2012,03,11,06,49,3.20
2012,03,11,06,50,8.10
2012,03,11,06,51,4.80
2012,03,11,06,52,3.20
2012,03,11,06,53,1.60
2012,03,11,06,54,1.60
2012,03,11,06,55,1.60
2012,03,11,06,56,1.60
2012,03,11,06,58,3.20
2012,03,11,06,59,1.60
2012,03,11,07,00,3.20
2012,03,11,07,01,4.80
2012,03,11,07,02,1.60
2012,03,11,07,04,3.20
2012,03,11,07,05,6.40
2012,03,11,07,06,6.40
2012,03,11,07,07,4.80
2012,03,11,07,08,3.20
2012,03,11,07,09,3.20
2012,03,11,07,10,1.60
2012,03,11,07,11,3.20
2012,03,11,07,12,3.20
2012,03,11,07,13,3.20
2012,03,11,07,14,1.60
2012,03,11,07,15,4.80
2012,03,11,07,16,4.80
2012,03,11,07,17,1.60
2012,03,11,07,18,3.20
2012,03,11,07,19,1.60
2012,03,11,07,20,3.20
2012,03,11,07,21,4.80
2012,03,11,07,22,4.80
2012,03,11,07,23,6.40
2012,03,11,07,24,4.80
2012,03,11,07,25,4.80
2012,03,11,07,26,4.80
2012,03,11,07,27,4.80
2012,03,11,07,29,1.60
2012,03,11,07,30,3.20
2012,03,11,07,31,3.20
2012,03,11,07,32,3.20
2012,03,11,07,33,1.60
2012,03,11,07,34,3.20
2012,03,11,07,35,3.20
2012,03,11,07,36,6.40
2012,03,11,07,37,6.40
2012,03,11,07,38,6.40
2012,03,11,07,39,4.80
2012,03,11,07,40,6.40
2012,03,11,07,41,8.10
2012,03,11,07,42,1.60
2012,03,11,07,43,3.20
2012,03,11,07,44,11.30
2012,03,11,07,45,3.20
2012,03,11,07,46,1.60
2012,03,11,07,47,3.20
2012,03,11,07,48,1.60
2012,03,11,07,49,4.80
2012,03,11,07,50,8.10
2012,03,11,07,51,6.40
2012,03,11,07,52,1.60
2012,03,11,07,53,1.60
2012,03,11,07,54,1.60
2012,03,11,07,56,3.20
2012,03,11,07,57,3.20
2012,03,11,07,58,6.40
2012,03,11,07,59,1.60
2012,03,11,08,00,3.20
2012,03,11,08,01,1.60
2012,03,11,08,02,3.20
2012,03,11,08,03,1.60
2012,03,11,08,04,4.80
2012,03,11,08,05,3.20
2012,03,11,08,06,3.20
2012,03,11,08,07,9.60
2012,03,11,08,08,9.60
2012,03,11,08,09,3.20
2012,03,11,08,11,4.80
2012,03,11,08,12,4.80
2012,03,11,08,13,8.10
2012,03,11,08,14,14.50
2012,03,11,08,15,4.80
2012,03,11,08,16,3.20
2012,03,11,08,17,1.60
2012,03,11,08,18,9.60
2012,03,11,08,19,6.40
2012,03,11,08,20,11.30
2012,03,11,08,21,8.10
2012,03,11,08,22,6.40
2012,03,11,08,23,11.30
2012,03,11,08,24,9.60
2012,03,11,08,25,3.20
2012,03,11,08,26,11.30
2012,03,11,08,27,8.10
2012,03,11,08,28,8.10
2012,03,11,08,29,11.30
2012,03,11,08,30,9.60
2012,03,11,08,31,4.80
2012,03,11,08,32,6.40
2012,03,11,08,33,6.40
2012,03,11,08,34,3.20
2012,03,11,08,35,11.30
2012,03,11,08,36,8.10
2012,03,11,08,37,4.80
2012,03,11,08,38,12.90
2012,03,11,08,39,16.10
2012,03,11,08,40,14.50
2012,03,11,08,41,3.20
2012,03,11,08,42,8.10
2012,03,11,08,43,12.90
2012,03,11,08,44,8.10
2012,03,11,08,45,9.60
2012,03,11,08,46,14.50
2012,03,11,08,47,12.90
2012,03,11,08,48,3.20
2012,03,11,08,49,6.40
2012,03,11,08,50,16.10
2012,03,11,08,51,14.50
2012,03,11,08,52,11.30
2012,03,11,08,53,8.10
2012,03,11,08,54,6.40
2012,03,11,08,55,6.40
2012,03,11,08,56,11.30
2012,03,11,08,57,16.10
2012,03,11,08,58,11.30
2012,03,11,08,59,1.60
2012,03,11,09,00,6.40
2012,03,11,09,01,12.90
2012,03,11,09,02,6.40
2012,03,11,09,03,4.80
2012,03,11,09,04,4.80
2012,03,11,09,05,4.80
2012,03,11,09,06,14.50
2012,03,11,09,07,16.10
2012,03,11,09,08,8.10
2012,03,11,09,09,22.50
2012,03,11,09,10,9.60
2012,03,11,09,11,12.90
2012,03,11,09,12,11.30
2012,03,11,09,13,11.30
2012,03,11,09,14,9.60
2012,03,11,09,15,9.60
2012,03,11,09,16,8.10
2012,03,11,09,17,6.40
2012,03,11,09,18,4.80
2012,03,11,09,19,6.40
2012,03,11,09,20,1.60
2012,03,11,09,21,8.10
2012,03,11,09,22,19.30
2012,03,11,09,23,16.10
2012,03,11,09,24,11.30
2012,03,11,09,25,9.60
2012,03,11,09,26,9.60
2012,03,11,09,27,16.10
2012,03,11,09,28,11.30
2012,03,11,09,29,11.30
2012,03,11,09,30,4.80
2012,03,11,09,31,14.50
2012,03,11,09,32,8.10
2012,03,11,09,33,14.50
2012,03,11,09,34,20.90
2012,03,11,09,35,19.30
2012,03,11,09,36,24.20
2012,03,11,09,37,9.60
2012,03,11,09,38,19.30
2012,03,11,09,39,25.70
2012,03,11,09,40,6.40
2012,03,11,09,41,8.10
2012,03,11,09,42,12.90
2012,03,11,09,43,8.10
2012,03,11,09,44,27.40
2012,03,11,09,45,19.30
2012,03,11,09,46,6.40
2012,03,11,09,47,3.20
2012,03,11,09,48,11.30
2012,03,11,09,49,9.60
2012,03,11,09,50,11.30
2012,03,11,09,51,16.10
2012,03,11,09,52,11.30
2012,03,11,09,53,24.20
2012,03,11,09,54,17.70
2012,03,11,09,55,20.90
2012,03,11,09,56,20.90
2012,03,11,09,57,9.60
2012,03,11,09,58,16.10
2012,03,11,09,59,17.70
2012,03,11,10,00,14.50
2012,03,11,10,01,14.50
2012,03,11,10,02,25.70
2012,03,11,10,03,19.30
2012,03,11,10,04,11.30
2012,03,11,10,05,12.90
2012,03,11,10,06,20.90
2012,03,11,10,07,17.70
2012,03,11,10,08,9.60
2012,03,11,10,09,20.90
2012,03,11,10,10,16.10
2012,03,11,10,11,24.20
2012,03,11,10,12,20.90
2012,03,11,10,13,9.60
2012,03,11,10,14,16.10
2012,03,11,10,15,14.50
2012,03,11,10,16,16.10
2012,03,11,10,17,29.00
2012,03,11,10,18,24.20
2012,03,11,10,19,20.90
2012,03,11,10,20,12.90
2012,03,11,10,21,19.30
2012,03,11,10,22,20.90
2012,03,11,10,23,20.90
2012,03,11,10,24,14.50
2012,03,11,10,25,9.60
2012,03,11,10,26,14.50
2012,03,11,10,27,14.50
2012,03,11,10,28,14.50
2012,03,11,10,29,22.50
2012,03,11,10,30,11.30
2012,03,11,10,31,19.30
2012,03,11,10,32,24.20
2012,03,11,10,33,20.90
2012,03,11,10,34,9.60
2012,03,11,10,35,4.80
2012,03,11,10,36,9.60
2012,03,11,10,37,4.80
2012,03,11,10,38,8.10
2012,03,11,10,39,11.30
2012,03,11,10,40,30.60
2012,03,11,10,41,14.50
2012,03,11,10,42,11.30
2012,03,11,10,43,19.30
2012,03,11,10,44,22.50
2012,03,11,10,45,14.50
2012,03,11,10,46,20.90
2012,03,11,10,47,12.90
2012,03,11,10,48,17.70
2012,03,11,10,49,16.10
2012,03,11,10,50,8.10
2012,03,11,10,51,24.20
2012,03,11,10,52,6.40
2012,03,11,10,53,24.20
2012,03,11,10,54,19.30
2012,03,11,10,55,17.70
2012,03,11,10,56,6.40
2012,03,11,10,57,11.30
2012,03,11,10,58,16.10
2012,03,11,10,59,29.00
2012,03,11,11,00,20.90
2012,03,11,11,01,17.70
2012,03,11,11,02,20.90
2012,03,11,11,03,19.30
2012,03,11,11,04,24.20
2012,03,11,11,05,19.30
2012,03,11,11,06,17.70
2012,03,11,11,07,25.70
2012,03,11,11,08,6.40
2012,03,11,11,09,20.90
2012,03,11,11,10,17.70
2012,03,11,11,11,22.50
2012,03,11,11,12,14.50
2012,03,11,11,13,8.10
2012,03,11,11,14,19.30
2012,03,11,11,15,19.30
2012,03,11,11,16,9.60
2012,03,11,11,17,11.30
2012,03,11,11,18,9.60
2012,03,11,11,19,17.70
2012,03,11,11,20,8.10
2012,03,11,11,21,8.10
2012,03,11,11,22,22.50
2012,03,11,11,23,19.30
2012,03,11,11,24,27.40
2012,03,11,11,25,11.30
2012,03,11,11,26,17.70
2012,03,11,11,27,16.10
2012,03,11,11,28,16.10
2012,03,11,11,29,11.30
2012,03,11,11,30,8.10
2012,03,11,11,31,19.30
2012,03,11,11,32,22.50
2012,03,11,11,33,17.70
2012,03,11,11,34,4.80
2012,03,11,11,35,24.20
2012,03,11,11,36,16.10
2012,03,11,11,37,16.10
2012,03,11,11,38,12.90
2012,03,11,11,39,6.40
2012,03,11,11,40,16.10
2012,03,11,11,41,19.30
2012,03,11,11,42,27.40
2012,03,11,11,43,33.80
2012,03,11,11,44,40.20
2012,03,11,11,45,24.20
2012,03,11,11,46,25.70
2012,03,11,11,47,27.40
2012,03,11,11,48,16.10
2012,03,11,11,49,19.30
2012,03,11,11,50,22.50
2012,03,11,11,51,24.20
2012,03,11,11,52,30.60
2012,03,11,11,53,20.90
2012,03,11,11,54,24.20
2012,03,11,11,55,19.30
2012,03,11,11,56,11.30
2012,03,11,11,57,20.90
2012,03,11,11,58,19.30
2012,03,11,11,59,22.50
2012,03,11,12,00,8.10
2012,03,11,12,01,19.30
2012,03,11,12,02,17.70
2012,03,11,12,03,9.60
2012,03,11,12,04,24.20
2012,03,11,12,05,14.50
2012,03,11,12,06,27.40
2012,03,11,12,07,25.70
2012,03,11,12,08,17.70
2012,03,11,12,09,17.70
2012,03,11,12,10,11.30
2012,03,11,12,11,17.70
2012,03,11,12,12,16.10
2012,03,11,12,13,8.10
2012,03,11,12,14,9.60
2012,03,11,12,15,22.50
2012,03,11,12,16,14.50
2012,03,11,12,17,8.10
2012,03,11,12,18,20.90
2012,03,11,12,19,24.20
2012,03,11,12,20,35.40
2012,03,11,12,21,25.70
2012,03,11,12,22,27.40
2012,03,11,12,23,19.30
2012,03,11,12,24,30.60
2012,03,11,12,25,20.90
2012,03,11,12,26,9.60
2012,03,11,12,27,25.70
2012,03,11,12,28,8.10
2012,03,11,12,29,25.70
2012,03,11,12,30,20.90
2012,03,11,12,31,6.40
2012,03,11,12,32,19.30
2012,03,11,12,33,19.30
2012,03,11,12,34,14.50
2012,03,11,12,35,19.30
2012,03,11,12,36,17.70
2012,03,11,12,37,11.30
2012,03,11,12,38,6.40
2012,03,11,12,39,14.50
2012,03,11,12,40,8.10
2012,03,11,12,41,6.40
2012,03,11,12,42,11.30
2012,03,11,12,43,17.70
2012,03,11,12,44,25.70
2012,03,11,12,45,17.70
2012,03,11,12,46,9.60
2012,03,11,12,47,8.10
2012,03,11,12,48,9.60
2012,03,11,12,49,22.50
2012,03,11,12,50,24.20
2012,03,11,12,51,11.30
2012,03,11,12,52,22.50
2012,03,11,12,53,17.70
2012,03,11,12,54,9.60
2012,03,11,12,55,4.80
2012,03,11,12,56,12.90
2012,03,11,12,57,19.30
2012,03,11,12,58,12.90
2012,03,11,12,59,12.90
2012,03,11,13,00,19.30
2012,03,11,13,01,19.30
2012,03,11,13,02,11.30
2012,03,11,13,03,32.20
2012,03,11,13,04,16.10
2012,03,11,13,05,20.90
2012,03,11,13,06,16.10
2012,03,11,13,07,9.60
2012,03,11,13,08,17.70
2012,03,11,13,09,19.30
2012,03,11,13,10,16.10
2012,03,11,13,11,9.60
2012,03,11,13,12,19.30
2012,03,11,13,13,20.90
2012,03,11,13,14,9.60
2012,03,11,13,15,8.10
2012,03,11,13,16,17.70
2012,03,11,13,17,22.50
2012,03,11,13,18,20.90
2012,03,11,13,19,6.40
2012,03,11,13,20,6.40
2012,03,11,13,21,4.80
2012,03,11,13,22,6.40
2012,03,11,13,23,25.70
2012,03,11,13,24,11.30
2012,03,11,13,25,8.10
2012,03,11,13,26,20.90
2012,03,11,13,27,16.10
2012,03,11,13,28,29.00
2012,03,11,13,29,27.40
2012,03,11,13,30,20.90
2012,03,11,13,31,19.30
2012,03,11,13,32,24.20
2012,03,11,13,33,9.60
2012,03,11,13,34,6.40
2012,03,11,13,35,11.30
2012,03,11,13,36,17.70
2012,03,11,13,37,20.90
2012,03,11,13,38,19.30
2012,03,11,13,39,11.30
2012,03,11,13,40,22.50
2012,03,11,13,41,27.40
2012,03,11,13,42,22.50
2012,03,11,13,43,16.10
2012,03,11,13,44,17.70
2012,03,11,13,45,20.90
2012,03,11,13,46,22.50
2012,03,11,13,47,25.70
2012,03,11,13,48,24.20
2012,03,11,13,49,25.70
2012,03,11,13,50,9.60
2012,03,11,13,51,6.40
2012,03,11,13,52,22.50
2012,03,11,13,53,11.30
2012,03,11,13,54,6.40
2012,03,11,13,55,4.80
2012,03,11,13,56,11.30
2012,03,11,13,57,14.50
2012,03,11,13,58,20.90
2012,03,11,13,59,17.70
2012,03,11,14,00,17.70
2012,03,11,14,01,11.30
2012,03,11,14,02,6.40
2012,03,11,14,03,20.90
2012,03,11,14,04,11.30
2012,03,11,14,05,17.70
2012,03,11,14,06,9.60
2012,03,11,14,07,8.10
2012,03,11,14,08,8.10
2012,03,11,14,09,8.10
2012,03,11,14,10,22.50
2012,03,11,14,11,22.50
2012,03,11,14,12,19.30
2012,03,11,14,13,17.70
2012,03,11,14,14,22.50
2012,03,11,14,15,24.20
2012,03,11,14,16,24.20
2012,03,11,14,17,16.10
2012,03,11,14,18,20.90
2012,03,11,14,19,11.30
2012,03,11,14,20,9.60
2012,03,11,14,21,9.60
2012,03,11,14,22,20.90
2012,03,11,14,23,16.10
2012,03,11,14,24,14.50
2012,03,11,14,25,8.10
2012,03,11,14,26,8.10
2012,03,11,14,27,20.90
2012,03,11,14,28,11.30
2012,03,11,14,29,4.80
2012,03,11,14,30,16.10
2012,03,11,14,31,16.10
2012,03,11,14,32,6.40
2012,03,11,14,33,11.30
2012,03,11,14,34,9.60
2012,03,11,14,35,6.40
2012,03,11,14,36,1.60
2012,03,11,14,37,8.10
2012,03,11,14,38,12.90
2012,03,11,14,39,4.80
2012,03,11,14,40,8.10
2012,03,11,14,41,9.60
2012,03,11,14,42,6.40
2012,03,11,14,43,22.50
2012,03,11,14,44,29.00
2012,03,11,14,45,20.90
2012,03,11,14,46,20.90
2012,03,11,14,47,22.50
2012,03,11,14,48,19.30
2012,03,11,14,49,14.50
2012,03,11,14,50,29.00
2012,03,11,14,51,4.80
2012,03,11,14,52,24.20
2012,03,11,14,53,20.90
2012,03,11,14,54,20.90
2012,03,11,14,55,17.70
2012,03,11,14,56,9.60
2012,03,11,14,57,24.20
2012,03,11,14,58,25.70
2012,03,11,14,59,19.30
2012,03,11,15,00,11.30
2012,03,11,15,01,11.30
2012,03,11,15,02,20.90
2012,03,11,15,03,11.30
2012,03,11,15,04,8.10
2012,03,11,15,05,4.80
2012,03,11,15,06,17.70
2012,03,11,15,07,9.60
2012,03,11,15,08,11.30
2012,03,11,15,09,6.40
2012,03,11,15,10,9.60
2012,03,11,15,11,17.70
2012,03,11,15,12,16.10
2012,03,11,15,13,9.60
2012,03,11,15,14,17.70
2012,03,11,15,15,20.90
2012,03,11,15,16,9.60
2012,03,11,15,17,9.60
2012,03,11,15,18,16.10
2012,03,11,15,19,14.50
2012,03,11,15,20,14.50
2012,03,11,15,21,19.30
2012,03,11,15,22,22.50
2012,03,11,15,23,16.10
2012,03,11,15,24,22.50
2012,03,11,15,25,19.30
2012,03,11,15,26,25.70
2012,03,11,15,27,20.90
2012,03,11,15,28,17.70
2012,03,11,15,29,19.30
2012,03,11,15,30,19.30
2012,03,11,15,31,22.50
2012,03,11,15,32,9.60
2012,03,11,15,33,11.30
2012,03,11,15,34,11.30
2012,03,11,15,35,6.40
2012,03,11,15,36,4.80
2012,03,11,15,37,4.80
2012,03,11,15,38,6.40
2012,03,11,15,39,12.90
2012,03,11,15,40,16.10
2012,03,11,15,41,17.70
2012,03,11,15,42,20.90
2012,03,11,15,43,22.50
2012,03,11,15,44,22.50
2012,03,11,15,45,14.50
2012,03,11,15,46,17.70
2012,03,11,15,47,17.70
2012,03,11,15,48,17.70
2012,03,11,15,49,14.50
2012,03,11,15,50,25.70
2012,03,11,15,51,22.50
2012,03,11,15,52,22.50
2012,03,11,15,53,14.50
2012,03,11,15,54,11.30
2012,03,11,15,55,6.40
2012,03,11,15,56,14.50
2012,03,11,15,57,11.30
2012,03,11,15,58,29.00
2012,03,11,15,59,9.60
2012,03,11,16,00,4.80
2012,03,11,16,01,14.50
2012,03,11,16,02,17.70
2012,03,11,16,03,17.70
2012,03,11,16,04,19.30
2012,03,11,16,05,17.70
2012,03,11,16,06,11.30
2012,03,11,16,07,19.30
2012,03,11,16,08,6.40
2012,03,11,16,09,17.70
2012,03,11,16,10,22.50
2012,03,11,16,11,12.90
2012,03,11,16,12,3.20
2012,03,11,16,13,17.70
2012,03,11,16,14,22.50
2012,03,11,16,15,20.90
2012,03,11,16,16,9.60
2012,03,11,16,17,9.60
2012,03,11,16,18,6.40
2012,03,11,16,19,9.60
2012,03,11,16,20,14.50
2012,03,11,16,21,17.70
2012,03,11,16,22,19.30
2012,03,11,16,23,8.10
2012,03,11,16,24,8.10
2012,03,11,16,25,8.10
2012,03,11,16,26,16.10
2012,03,11,16,27,14.50
2012,03,11,16,28,9.60
2012,03,11,16,29,12.90
2012,03,11,16,30,33.80
2012,03,11,16,31,24.20
2012,03,11,16,32,17.70
2012,03,11,16,33,16.10
2012,03,11,16,34,3.20
2012,03,11,16,35,12.90
2012,03,11,16,36,14.50
2012,03,11,16,37,25.70
2012,03,11,16,38,20.90
2012,03,11,16,39,17.70
2012,03,11,16,40,6.40
2012,03,11,16,41,9.60
2012,03,11,16,42,12.90
2012,03,11,16,43,3.20
2012,03,11,16,44,6.40
2012,03,11,16,45,11.30
2012,03,11,16,46,11.30
2012,03,11,16,47,11.30
2012,03,11,16,48,11.30
2012,03,11,16,49,16.10
2012,03,11,16,50,14.50
2012,03,11,16,51,9.60
2012,03,11,16,52,11.30
2012,03,11,16,53,4.80
2012,03,11,16,54,8.10
2012,03,11,16,55,9.60
2012,03,11,16,56,16.10
2012,03,11,16,57,16.10
2012,03,11,16,58,6.40
2012,03,11,16,59,11.30
2012,03,11,17,00,9.60
2012,03,11,17,01,9.60
2012,03,11,17,02,16.10
2012,03,11,17,03,9.60
2012,03,11,17,04,4.80
2012,03,11,17,05,9.60
2012,03,11,17,06,17.70
2012,03,11,17,07,4.80
2012,03,11,17,08,9.60
2012,03,11,17,09,11.30
2012,03,11,17,10,16.10
2012,03,11,17,11,22.50
2012,03,11,17,12,14.50
2012,03,11,17,13,17.70
2012,03,11,17,14,17.70
2012,03,11,17,15,9.60
2012,03,11,17,16,11.30
2012,03,11,17,17,8.10
2012,03,11,17,18,16.10
2012,03,11,17,19,8.10
2012,03,11,17,20,11.30
2012,03,11,17,21,8.10
2012,03,11,17,22,9.60
2012,03,11,17,23,9.60
2012,03,11,17,24,16.10
2012,03,11,17,25,9.60
2012,03,11,17,26,4.80
2012,03,11,17,27,3.20
2012,03,11,17,28,4.80
2012,03,11,17,29,4.80
2012,03,11,17,30,8.10
2012,03,11,17,31,8.10
2012,03,11,17,32,8.10
2012,03,11,17,33,4.80
2012,03,11,17,34,17.70
2012,03,11,17,35,14.50
2012,03,11,17,36,9.60
2012,03,11,17,37,12.90
2012,03,11,17,38,3.20
2012,03,11,17,39,17.70
2012,03,11,17,40,11.30
2012,03,11,17,41,9.60
2012,03,11,17,42,6.40
2012,03,11,17,43,8.10
2012,03,11,17,44,11.30
2012,03,11,17,45,16.10
2012,03,11,17,46,14.50
2012,03,11,17,47,6.40
2012,03,11,17,48,11.30
2012,03,11,17,49,17.70
2012,03,11,17,50,11.30
2012,03,11,17,51,27.40
2012,03,11,17,52,24.20
2012,03,11,17,53,19.30
2012,03,11,17,54,11.30
2012,03,11,17,55,22.50
2012,03,11,17,56,17.70
2012,03,11,17,57,17.70
2012,03,11,17,58,9.60
2012,03,11,17,59,8.10
2012,03,11,18,00,8.10
2012,03,11,18,01,14.50
2012,03,11,18,02,4.80
2012,03,11,18,03,20.90
2012,03,11,18,04,16.10
2012,03,11,18,05,19.30
2012,03,11,18,06,27.40
2012,03,11,18,07,27.40
2012,03,11,18,08,25.70
2012,03,11,18,09,25.70
2012,03,11,18,10,9.60
2012,03,11,18,11,9.60
2012,03,11,18,12,8.10
2012,03,11,18,13,17.70
2012,03,11,18,14,8.10
2012,03,11,18,15,6.40
2012,03,11,18,16,8.10
2012,03,11,18,17,8.10
2012,03,11,18,18,16.10
2012,03,11,18,19,4.80
2012,03,11,18,20,11.30
2012,03,11,18,21,8.10
2012,03,11,18,22,4.80
2012,03,11,18,23,8.10
2012,03,11,18,24,4.80
2012,03,11,18,25,6.40
2012,03,11,18,26,4.80
2012,03,11,18,27,11.30
2012,03,11,18,28,9.60
2012,03,11,18,29,8.10
2012,03,11,18,30,6.40
2012,03,11,18,31,6.40
2012,03,11,18,32,6.40
2012,03,11,18,33,11.30
2012,03,11,18,34,9.60
2012,03,11,18,35,6.40
2012,03,11,18,36,3.20
2012,03,11,18,37,8.10
2012,03,11,18,38,4.80
2012,03,11,18,39,6.40
2012,03,11,18,40,3.20
2012,03,11,18,41,19.30
2012,03,11,18,42,8.10
2012,03,11,18,43,11.30
2012,03,11,18,44,14.50
2012,03,11,18,45,22.50
2012,03,11,18,46,20.90
2012,03,11,18,47,11.30
2012,03,11,18,48,16.10
2012,03,11,18,49,6.40
2012,03,11,18,50,6.40
2012,03,11,18,51,4.80
2012,03,11,18,52,4.80
2012,03,11,18,53,14.50
2012,03,11,18,54,4.80
2012,03,11,18,55,6.40
2012,03,11,18,56,9.60
2012,03,11,18,57,11.30
2012,03,11,18,58,27.40
2012,03,11,18,59,8.10
2012,03,11,19,00,14.50
2012,03,11,19,01,16.10
2012,03,11,19,02,4.80
2012,03,11,19,03,14.50
2012,03,11,19,04,9.60
2012,03,11,19,05,6.40
2012,03,11,19,06,8.10
2012,03,11,19,07,6.40
2012,03,11,19,08,8.10
2012,03,11,19,09,11.30
2012,03,11,19,10,6.40
2012,03,11,19,11,6.40
2012,03,11,19,12,4.80
2012,03,11,19,13,8.10
2012,03,11,19,14,6.40
2012,03,11,19,16,4.80
2012,03,11,19,17,8.10
2012,03,11,19,18,6.40
2012,03,11,19,19,6.40
2012,03,11,19,20,20.90
2012,03,11,19,21,12.90
2012,03,11,19,22,8.10
2012,03,11,19,23,8.10
2012,03,11,19,24,8.10
2012,03,11,19,25,4.80
2012,03,11,19,26,4.80
2012,03,11,19,27,3.20
2012,03,11,19,28,1.60
2012,03,11,19,29,3.20
2012,03,11,19,30,4.80
2012,03,11,19,31,4.80
2012,03,11,19,32,14.50
2012,03,11,19,33,17.70
2012,03,11,19,34,14.50
2012,03,11,19,35,4.80
2012,03,11,19,36,6.40
2012,03,11,19,37,6.40
2012,03,11,19,38,1.60
2012,03,11,19,39,3.20
2012,03,11,19,40,6.40
2012,03,11,19,41,6.40
2012,03,11,19,42,6.40
2012,03,11,19,43,4.80
2012,03,11,19,44,1.60
2012,03,11,19,46,1.60
2012,03,11,19,47,3.20
2012,03,11,19,48,4.80
2012,03,11,19,49,3.20
2012,03,11,19,50,3.20
2012,03,11,19,51,1.60
2012,03,11,19,52,3.20
2012,03,11,19,53,3.20
2012,03,11,19,54,1.60
2012,03,11,19,55,3.20
2012,03,11,19,56,1.60
2012,03,11,19,57,1.60
2012,03,11,19,58,3.20
2012,03,11,19,59,3.20
2012,03,11,20,00,3.20
2012,03,11,20,01,1.60
2012,03,11,20,02,1.60
2012,03,11,20,03,1.60
2012,03,11,20,05,3.20
2012,03,11,20,06,1.60
2012,03,11,20,07,6.40
2012,03,11,20,08,4.80
2012,03,11,20,09,3.20
2012,03,11,20,10,1.60
2012,03,11,20,11,3.20
2012,03,11,20,12,1.60
2012,03,11,20,13,4.80
2012,03,11,20,14,4.80
2012,03,11,20,15,4.80
2012,03,11,20,16,9.60
2012,03,11,20,17,3.20
2012,03,11,20,18,6.40
2012,03,11,20,19,4.80
2012,03,11,20,20,4.80
2012,03,11,20,23,4.80
2012,03,11,20,24,6.40
2012,03,11,20,25,8.10
2012,03,11,20,26,8.10
2012,03,11,20,27,8.10
2012,03,11,20,28,6.40
2012,03,11,20,29,6.40
2012,03,11,20,30,4.80
2012,03,11,20,31,3.20
2012,03,11,20,32,6.40
2012,03,11,20,33,4.80
2012,03,11,20,34,4.80
2012,03,11,20,35,4.80
2012,03,11,20,36,3.20
2012,03,11,20,37,3.20
2012,03,11,20,38,4.80
2012,03,11,20,39,1.60
2012,03,11,20,40,3.20
2012,03,11,20,41,3.20
2012,03,11,20,43,1.60
2012,03,11,20,44,1.60
2012,03,11,20,45,3.20
2012,03,11,20,46,1.60
2012,03,11,20,47,1.60
2012,03,11,20,48,3.20
2012,03,11,20,49,3.20